Weather in Fukushima

Japan     37°45′35″N   140°27′30″E
temp.,
°C
wind,
m/s
gust,
m/s
humid.,
%
clouds,
%
prec.,
mm/h
press.,
hPa
HPBL,
m
14 april, wed
wed1400:00+13ssw3888100 0.0 1009423
03:00+11sw1293100 0.0 100848
06:00+11sw1190100 0.0 100854
09:00+12nnw3589100 0.6 1008421
12:00+11nnw3977100 0.1 1008635
15:00+9nnw5974100 0.1 1008768
18:00+7nnw51167100 0.0 1012846
21:00+5nnw613601 0.0 1015938
15 april, thu
thu1500:00+3nw39580 0.0 1018558
03:00+1nnw11660 0.0 102020
06:00+2s11650 0.0 102266
09:00+10nw25270 0.0 10221453
12:00+14nnw14230 0.0 10211820
15:00+15nnw23231 0.0 10201928
18:00+9ene244999 0.0 102382
21:00+7sse1262100 0.0 102659
16 april, fri
fri1600:00+5s2468100 0.0 1026123
03:00+5s1272100 0.0 102654
06:00+5s12730 0.0 102798
09:00+13ssw510485 0.0 10251478
12:00+17s7103699 0.0 10232051
15:00+16s71044100 0.0 10211806
18:00+12s51163100 0.0 10221257
21:00+11s41166100 0.0 10231166
17 april, sat
sat1700:00+10ssw41279100 0.4 10211080
03:00+10ssw41284100 0.9 10201084
06:00+10s31195100 5.7 1019789
09:00+10ssw1298100 17.5 1017132
12:00+11ene1197100 12.1 1015138
15:00+11ese1198100 17.8 101279
18:00+11nnw2693100 0.5 1012403
21:00+9nnw11885 0.5 101123
18 april, sun
sun1800:00+8sw119019 0.0 101026
03:00+9nw4984100 0.3 1010530
06:00+7sse128599 0.3 1011174
09:00+11nnw255323 0.3 10111294
12:00+15wnw473491 0.0 10092506
15:00+14w483656 0.0 10082402
18:00+9ne036226 0.0 1010208
21:00+7ssw247083 0.0 1011188